Location: Montbazon
(47.2835°N, 0.6999°E)
Time: 06:43:59
(UTC+00:00)

USA 267 - Pass Details

Date: 08 November 2025
Orbit: 1100 x 1108 km, 123.0° (Epoch: 21 November)

Event Time Altitude Azimuth Distance (km) Brightness Sun altitude
Rises 04:55:24 0° 57° (ENE) 3,924 7.0 -19.8°
Reaches altitude 10° 04:57:57 10° 52° (NE) 2,964 6.2 -19.4°
Maximum altitude 05:04:13 51° 339° (NNW) 1,357 3.5 -18.3°
Enters shadow 05:07:39 27° 278° (W) 1,982 4.0 -17.7°
